Starlink 5873

operational
NORAD ID: 56490 Int'l Des: 2023-064 Owner: SPXS Country: US Constellation: starlink
LEOCIRCULAR

Über Starlink 5873

Beschreibung wird geladen...

Live-Position

3D-Globus wird geladen...

Nächste Überflüge

Höhenverlauf

Altitude vs Time

uPlot chart will show altitude changes over time

Zweizeiliger Elementsatz

1 56490U 23064AU 25261.21443467 -.00000309 00000-0 -18141-4 0 9999
2 56490 70.0008 179.4782 0002831 269.3958 90.6877 14.98333583130395
Epoch: 18. Sept. 2025 • Age: 9 hours

Aktueller Status

Höhe 574.0 km
Geschwindigkeit 7.57 km/s
Subsatellitenpunkt 8.48°N, 148.95°E
Startdatum 10. Mai 2023
Alter 2.3 years
Typ internet

Technische Details

Klassifizierung Payload
Masse 305.00 kg
Trockenmasse 290.00 kg
Gesamtmasse 305.00 kg
Länge 0.20 m
Durchmesser 2.80 m
Spannweite 9.00 m
Form Box + pan
Hersteller SPXS
Bus-Typ Starlink
Phasenstatus In Orbit
Besitzer/Staat SPXS/US

Große Konstellationen

Loading constellations...